Hourly Data Report for September 27, 2020

GIMLI CLIMATE
MANITOBA
Current Station Operator: ECCC - MSC

50°38'00.000" N
97°03'00.000" W
230.10 m
5031042
71748
PGH

Download Data

Hourly Data (September 2020)
Hourly Data Report for September 27, 2020
TIME Temp Definition
°C
Dew Point Definition
°C
Rel Hum Definition
%
Wind Dir Definition
10's deg

Wind Spd Definition
km/h
Visibility Definition
km
Stn Press Definition
kPa
Hmdx Definition


Wind Chill Definition


Weather Definition


00:00 11.2 7.4 77 29 10   96.72     LegendNANA
01:00 11.4 7.7 78 31 10   96.71     LegendNANA
02:00 11.4 8.2 81 29 10   96.74     LegendNANA
03:00 12.4 8.5 77 29 14   96.75     LegendNANA
04:00 12.2 8.5 78 30 14   96.83     LegendNANA
05:00 11.8 8.7 81 32 20   96.94     LegendNANA
06:00 11.4 8.1 80 32 22   97.07     LegendNANA
07:00 10.6 8.1 84 31 16   97.18     LegendNANA
08:00 11.0 7.6 80 32 21   97.28     LegendNANA
09:00 11.9 6.0 67 32 22   97.36     LegendNANA
10:00 12.5 5.3 61 32 29   97.44     LegendNANA
11:00 11.7 5.1 64 31 25   97.52     LegendNANA
12:00 12.2 4.3 59 32 26   97.59     LegendNANA
13:00 12.4 4.0 56 31 26   97.69     LegendNANA
14:00 11.5 3.6 58 33 21   97.79     LegendNANA
15:00 11.7 3.8 59 30 24   97.87     LegendNANA
16:00 10.8 4.8 66 31 23   97.95     LegendNANA
17:00 10.8 4.7 66 31 21   98.03     LegendNANA
18:00 10.4 5.1 70 30 20   98.11     LegendNANA
19:00 10.0 5.2 72 31 19   98.21     LegendNANA
20:00 9.9 5.0 72 31 17   98.27     LegendNANA
21:00 9.5 4.9 73 32 19   98.32     LegendNANA
22:00 9.2 5.3 77 31 22   98.33     LegendNANA
23:00 8.7 5.0 78 32 22   98.38     LegendNANA

Notes on Data Quality.

Legend

  • E = Estimated
  • M = Missing
  • NA = Not Available*
  • [empty] = Indicates an unobserved value
Date modified: